Location: Bratsk-Energetik
(56.3300°N, 101.7600°E)
Time: 23:22:18
(UTC+08:00)

ISS - Pass Details

Date: 15 May 2021
Orbit: 417 x 422 km, 51.6° (Epoch: 12 June)

Event Time Altitude Azimuth Distance (km) Brightness Sun altitude
Rises 00:13:35 0° 237° (WSW) 2,362 -0.1 -14.0°
Enters shadow 00:14:02 - 235° (SW) 2,185 -0.3 -14.0°
Exits shadow 00:19:25 27° 143° (SE) 850 -2.7 -14.1°
Drops below altitude 10° 00:21:46 10° 103° (ESE) 1,507 -1.2 -14.2°
Sets 00:24:01 0° 92° (E) 2,374 -0.1 -14.3°
